Weather History for KTIK - November, 2012

Change the Weather History Date:

Friday, November 30, 2012

  Actual Average Record
Temperature  
Mean Temperature 58 °F -  
Max Temperature 70 °F 53 °F 70 °F (2012)
Min Temperature 47 °F 35 °F 17 °F (2006)
Degree Days  
Heating Degree Days 6    
Growing Degree Days 8 (Base 50)    
Moisture  
Dew Point 51 °F    
Average Humidity 77    
Maximum Humidity 97    
Minimum Humidity 56    
Precipitation  
Precipitation 0.00 in - - ()
Sea Level Pressure  
Sea Level Pressure 30.00 in    
Wind  
Wind Speed 12 mph (South)    
Max Wind Speed 16 mph    
Max Gust Speed 22 mph    
Visibility 10 miles    
Events      
Averages and records for this station are not official NWS values.
T = Trace of Precipitation, MM = Missing Value Source: NWS Daily Summary

Daily Weather History Graph

Daily Weather History Graph

Search for Another Location

Airport or City:

Trip Planner

Search our weather history database for the weather conditions in past years. The results will help you decide how hot, cold, wet, or windy it might be!

Date:

Astronomy

Nov. 30, 2012 Rise Set
Actual Time 7:19 AM CST 5:16 PM CST
Civil Twilight 6:51 AM CST 5:44 PM CST
Nautical Twilight 6:20 AM CST 6:16 PM CST
Astronomical Twilight 5:49 AM CST 6:46 PM CST
Moon 7:12 PM CST (11/30) 8:52 AM CST (11/30)
Length of Visible Light 10h 52m
Length of Day
9h 57m
Waning Gibbous, 96% of the Moon is Illuminated
Nov 30
Waning Gibbous
Dec 6
Last Quarter
Dec 13
New
Dec 19
First Quarter
Dec 28
Full

Hourly Weather History & Observations

Time (CST) Temp. Dew Point Humidity Pressure Visibility Wind Dir Wind Speed Gust Speed Precip Events Conditions
12:55 AM 50.7 °F 40.6 °F 68% 30.04 in 10.0 mi South 13.8 mph - N/A   Clear
1:55 AM 49.8 °F 42.3 °F 75% 30.03 in 10.0 mi South 12.7 mph - N/A   Clear
2:55 AM 50.2 °F 44.2 °F 80% 30.03 in 10.0 mi South 12.7 mph - N/A   Clear
3:55 AM 49.8 °F 45.7 °F 86% 30.03 in 10.0 mi South 15.0 mph - N/A   Clear
4:55 AM 50.5 °F 47.1 °F 88% 30.02 in 10.0 mi South 15.0 mph - N/A   Clear
5:55 AM 50.2 °F 47.1 °F 89% 30.02 in 10.0 mi South 12.7 mph - N/A   Clear
6:55 AM 48.6 °F 46.9 °F 94% 30.04 in 10.0 mi SSE 9.2 mph - N/A   Clear
7:55 AM 47.8 °F 47.1 °F 97% 30.06 in 10.0 mi SSE 8.1 mph - N/A   Clear
8:55 AM 52.0 °F 49.8 °F 92% 30.07 in 10.0 mi South 9.2 mph - N/A   Clear
9:55 AM 56.7 °F 51.1 °F 82% 30.07 in 10.0 mi South 15.0 mph - N/A   Clear
10:55 AM 60.1 °F 52.0 °F 75% 30.06 in 10.0 mi South 13.8 mph - N/A   Clear
11:55 AM 63.7 °F 52.2 °F 66% 30.04 in 10.0 mi South 10.4 mph - N/A   Clear
12:55 PM 66.9 °F 52.5 °F 60% 30.00 in 10.0 mi South 10.4 mph - N/A   Clear
1:55 PM 68.2 °F 54.0 °F 60% 29.97 in 10.0 mi SSE 11.5 mph 19.6 mph N/A   Clear
2:24 PM 68.0 °F 53.6 °F 60% 29.97 in 10.0 mi SSE 10.4 mph - N/A   Light Drizzle
2:33 PM 68.0 °F 53.6 °F 60% 29.96 in 10.0 mi South 12.7 mph 16.1 mph N/A   Clear
2:55 PM 69.3 °F 53.2 °F 57% 29.96 in 10.0 mi South 13.8 mph - 0.00 in   Clear
3:55 PM 70.3 °F 54.1 °F 56% 29.95 in 10.0 mi South 12.7 mph 20.7 mph N/A   Clear
4:55 PM 68.0 °F 54.0 °F 61% 29.95 in 10.0 mi South 11.5 mph - N/A   Clear
5:55 PM 64.2 °F 54.1 °F 70% 29.96 in 10.0 mi SSE 9.2 mph - N/A   Clear
6:55 PM 62.6 °F 55.0 °F 76% 29.97 in 10.0 mi SSE 8.1 mph - N/A   Clear
7:55 PM 60.6 °F 55.9 °F 85% 29.98 in 10.0 mi SSE 12.7 mph - N/A   Clear
8:55 PM 59.0 °F 55.8 °F 89% 29.97 in 10.0 mi SSE 11.5 mph - N/A   Clear
9:55 PM 58.8 °F 56.5 °F 92% 29.97 in 10.0 mi South 13.8 mph 21.9 mph N/A   Clear
10:55 PM 58.8 °F 57.4 °F 95% 29.97 in 10.0 mi SSE 13.8 mph - N/A   Clear
11:55 PM 59.5 °F 57.9 °F 94% 29.96 in 10.0 mi South 16.1 mph 21.9 mph N/A   Clear